Dashboard       Favorites      Messages      Login    
GeoLadders
   Visitors 617   Logins 20
   You are not logged in.
Gallery
(53 images)
   picture   picture
Course
View Other Races







Mountain bike racing
406 racers

Team Big Bear - Bonelli Park, 3/25/07

Preliminary results.

   
3.0 laps (27.1 miles, 3,903 ft. total ascent)
RankTimeNameSponsorCategoryClass/AgePlaceSexCityLaps
1   01:48:40 Emmanuel Valencia (296)TurboPro 1-99MTecate3.0
2   01:48:58 Miguel Valadez (299)ZimmultPro 1-99MTecate3.0
3   01:49:24 Cameron Brenneman (272)Sho-airPro 1-99MMission Viejo3.0
4   01:50:37 Leonardo Sandoval (219)SpecializePro 1-99MLake Balboa3.0
5   01:50:37 Charles Jenkins (170)Cytomax/khPro 1-99MSan Diego3.0
6   01:50:57 Michael Lee (184)Trek VwPro 1-99MMission Viejo3.0
7   01:51:58 Michael Andres (160)Trek Vw CaPro 1-99MChico3.0
8   01:52:34 Manuel Prado (180)Sho-airSemipro 1-99MLake Forest3.0
9   01:53:04 Jason First (198)Sho-air/roSemipro 1-99MCosta Mesa3.0
10   01:53:33 Eric Barlevav (254)SpecializePro 1-99MNorthridge3.0
11   01:54:01 Tim Olson (223)Trek VwPro 1-99MChico3.0
12   01:55:33 Scott Mckelvey (194)Palm SprinSemipro 1-99MCathedral City3.0
13   01:55:43 Ziranda Madrigal (295)TurboExpert 30-34M3.0
14   01:55:44 Nigel Hill (166)Trek Vw WcSemipro 1-99MMckinleyville3.0
15   01:56:12 Hal Helbock (230)Cytomax/khPro 1-9910 MSun City3.0
16   01:57:30 Kevin Smallman (283)Bear Nkd/cPro 1-9911 MSan Leandro3.0
17   01:57:31 Lyle Warner (304)Helens/subSemipro 1-99MAltadena3.0
18   01:57:32 Romolo Forcino (209)Bv BikesSemipro 1-99MHesperia3.0
19   01:57:42 Denton Bowers (161)IntenseSemipro 1-99MSan Diego3.0
20   01:57:54 Raymond Caballero (252)Helens/fisSemipro 1-99MLa3.0
21   01:58:20 Chris Burnham (163)Jamis BicySemipro 1-99MSeaside3.0
22   01:58:47 Nate Whitman (202)Cynergy/haSemipro 1-9910 MLos Angeles3.0
23   01:59:37 Sean Bartilet (224)La Habra CExpert 30-34MLa Habra3.0
24   01:59:50 Todd Booth (188)PlatinumExpert 35-39MSanta Barbara3.0
25   01:59:54 Matthew Cochran (280)Rynolds-koExpert 35-39MThousand Oaks3.0
26   02:00:02 Andrew Freye (300)Bikeman.coPro 1-9912 MWinthrop3.0
27   02:00:03 Mike Oceguera (175)Sc VeloSemipro 1-9911 MAzusa3.0
28   02:00:17 Brian Wilmot (218)Team D.a.rExpert 25-29MSan Dimas3.0
29   02:00:46 Jamie Goldstein (240)PlatinumSemipro 1-9912 MSanta Barbara3.0
30   02:01:30 Rich Bartlett (159)So Cal SpeExpert 40-44MLancaster3.0
31   02:01:43 David Sullivan (301)Bike EmpirExpert 45-49MEncinitas3.0
32   02:01:55 Alex Boone (196)Helens/subExpert 19-24MPasadena3.0
33   02:02:01 Brad Stephenson (262)Sho-airProS Speed 1-99MMission Viejo3.0
34   02:02:32 Roger Moore (279)PlatinumExpert 35-39MGoleta3.0
35   02:02:43 Peter Sutherland (268)Bv BikesExpert 40-44MBig Bear Lake3.0
36   02:03:03 Sergio Garcia (165)Sc VeloExpert 19-24MPomona3.0
37   02:03:14 Todd Stephenson (263)Sho-airProS Speed 1-99MAliso Viejo3.0
38   02:03:14 Michael Kent (292)DeathstarExpertS SPEED 1-99MGoleta3.0
39   02:03:25 Jermaine Brown (264)Velo Pro/kExpert 30-34MSanta Barbara3.0
40   02:03:29 Doug Urbach (288)PlatinumExpert 40-44MWestlake Villag3.0
41   02:03:47 Stuart Gonzalez (164)IntenseExpert 30-34MCorona3.0
42   02:03:56 Alexis Seletzky (181)Rocky MtnSemipro 1-9913 MLos Angeles3.0
43   02:04:46 Tim Zandbergen (205)Sho-airExpert 40-44MAliso Viejo3.0
44   02:04:51 Eric Bierman (261)Bv Bikes/sSemipro 1-9914 MCosta Mesa3.0
45   02:05:02 Phil Kelly (173)Expert 35-39MSimi Valley3.0
46   02:05:12 Glenn Stanton (257)Velobum.coExpert 40-44MRancho Mirage3.0
47   02:05:26 Doug Cone (234)So Cal SpeExpert 35-39MGranada Hills3.0
48   02:05:42 Bobby Langin Sr (228)Langtown RExpert 45-49MThousand Oaks3.0
49   02:05:44 Robert Herber (167)IntenseSemipro 1-9915 MMurrieta3.0
50   02:06:31 Greg Carlton (199)Expert 45-49MWalnut3.0
51   02:06:57 Ryan Clark (197)JustgorideExpert 25-29MAliso Viejo3.0
52   02:07:02 Rusty Sena (182)Tm HelensExpert 35-39MCulver City3.0
53   02:07:10 Daniel Perez (231)Jenson UsaExpert 30-34MCorona3.0
54   02:07:13 Bert Blanchette (187)BackboneSemipro 1-9916 MLong Beach3.0
55   02:07:15 Dennis Hahn (305)UsmcExpert 35-39MSan Diego3.0
56   02:07:18 Matt Benko (241)Chicken RaExpert 40-44MSanta Barbara3.0
57   02:07:19 Kevin Mckenna (255)Afp/veloExpert 40-44MRsm3.0
58   02:07:30 Coley King (302)VertigoExpertS SPEED 1-99MVenice3.0
59   02:08:52 John Cline (246)Ape RacingExpert 35-39MGranada Hills3.0
60   02:09:04 Bill Mosher (258)Afp/veloExpert 40-44MLaguna Niguel3.0
61   02:09:14 Ron Takeda (245)PlatinumExpert 45-49MSanta Barbara3.0
62   02:09:22 John Nobil (307)Semipro 1-9917 MLa Jolla3.0
63   02:09:35 Craig Hopps (200)Sho-airExpert 40-44MTrabuco Canyon3.0
64   02:09:42 Bobby Langin Jr (227)Team BitchExpert 19-24MThousand Oaks3.0
65   02:09:55 Chad Stoehr (273)LgbrcPro 1-9913 MSan Luis Obispo3.0
66   02:10:08 Richard Obryan (291)Sc VeloExpert 40-4410 MUpland3.0
67   02:11:04 Sean Smith (183)Afp/veloExpert 40-4411 MLaguna Niguel3.0
68   02:11:25 Chad Elmer (269)Bv BikesExpert 30-34MApple Valley3.0
69   02:11:50 Mark Scheetz (178)Coates CycExpertS SPEED 1-99MUpland3.0
70   02:11:57 Dustin Luton (168)Coates CycExpert 35-39MPasadena3.0
71   02:12:02 Ryan Ives (306)RanchosExpert 25-29MSan Marcos3.0
72   02:12:11 Andy Osburn (229)PlatinumExpert 40-4412 MSanta Barbara3.0
73   02:12:33 Barrett Brauer (287)TwopExpertS SPEED 1-99MCosta Mesa3.0
74   02:12:39 David Roth (244)Helens/subExpertS SPEED 1-99MLos Angeles3.0
75   02:12:39 Zach Patterson (193)ExpertJr 18 & UnderMPinon Hills3.0
76   02:13:11 Tony Gonzalez (225)Team CesExpert 40-4413 MLas Vegas3.0
77   02:13:20 Edward Dinger (192)Tm Jose OlExpertS SPEED 1-99MSan Bernardino3.0
78   02:13:33 Scott Shaw (266)Covina ValExpert 45-49MCovina3.0
79   02:13:36 Humberto Castro (282)Sc VeloExpert 30-34MFullerton3.0
80   02:13:46 Michael Darter (249)BackboneExpert 40-4414 MTopanga3.0
81   02:14:16 Tom Arnold (217)AmgenExpert 45-49MSimi Valley3.0
82   02:14:37 Ty Obrien (260)Expert 35-3910 MOceanside3.0
83   02:14:51 Amador Castro (281)Sc VeloExpert 19-24MFullerton3.0
84   02:15:00 Brian Teed (216)Expert 40-4415 MWrightwood3.0
85   02:15:19 Larry Price (253)GeolddersExpert 45-49MLadera Ranch3.0
86   02:15:35 Chris Marsiguerra (220)JoselynsExpert 35-3911 MMonterey3.0
87   02:15:55 Eric Bradley (293)Bv BikesExpert 30-34MPlacentia3.0
88   02:16:00 Bill Scott (277)Sho-airExpert 40-4416 MOrange3.0
89   02:16:42 Steve Boyd (210)Expert 40-4417 MSan Diego3.0
90   02:17:01 Timothy Halley (271)Velo TrocaExpertS SPEED 1-99MSanta Ynez3.0
91   02:17:09 Bruce Wilson (203)Tm CycopatExpert 45-49MTemecula3.0
92   02:17:19 Steve Kinney (186)Steven KPro 1-9914 MBig Bear Lake3.0
93   02:17:26 Paul Klysz (274)Psyclist@cSemipro 1-9918 MOceanside3.0
94   02:17:56 Mike Hecker (286)Sbbc/syv CExpert 35-3912 MSanta Barbara3.0
95   02:19:00 Michael Rogers (190)Afp/veloExpert 40-4418 MFoothill Ranch3.0
96   02:19:06 Steve Silva (242)PlatinumExpert 45-49MGoleta3.0
97   02:20:26 David Reid (275)Expert 35-3913 MLaguan Hills3.0
98   02:20:37 Adam Hart (247)PossabilitExpert 30-34MRedlands3.0
99   02:21:01 Craig Kokesh (169)Ladera CycExpert 35-3914 MLadera Ranch3.0
100   02:21:53 Greg De Mars (238)So Cal SpeExpert 45-4910 MStevenson Ranch3.0
101   02:22:25 Robert Snyder (294)Expert 30-3410 MLas Vegas3.0
102   02:23:11 Brant Hatton (265)24 Hr FitnExpert 30-3411 MHuntington Beac3.0
103   02:23:40 Eric Nelson (232)PossabilitExpert 30-3412 MWrightwood3.0
104   02:24:54 Bob Rich (290)Cynergy CyExpert 35-3915 MManhatten Beach3.0
105   02:24:55 Fabrice Gallez (284)Velo BumExpert 35-3916 MPalm Springs3.0
106   02:26:18 Adan Guzman (571)Tm HelensExpert 40-4419 MLawndale3.0
107   02:26:19 Mark Luke (172)PlatinumExpert 45-4911 MGoleta3.0
108   02:27:45 Dale Niemi (201)Afp/veloExpert 40-4420 MCoto De Caza3.0
109   02:31:41 Veeze Price (256)Bv BikesSemipro 1-9919 MSan Bernardino3.0
110   02:35:33 Art Escamilla (215)PossabilitExpert 40-4421 MFontana3.0
111   02:41:20 Stephane Roch (206)Bike EmpirExpert 19-24MOceanside3.0
112   02:44:06 Matthew Hersey (298)Bikeman.coExpertS SPEED 1-99MSan Diego3.0
113  DNFMark Giddings (208)Bicycle JoExpert 40-44999 MEdwards Afb3.0
114  DNFDerek Hermon (259)Bv BikesSemipro 1-99999 MBig Bear Lake3.0
115  DNFTimothy Pickett (303)Jenson UsaExpert 30-34999 MOntario3.0
116  DNFWade Arnold (213)Sc VeloExpert 40-44999 MLakewood3.0
117  DNFRick Danner (270)Chicken RaSemipro 1-99999 MDel Mar3.0
118  DNFPaul Garcia (248)Bicycle JoExpert 45-49999 MMoorpark3.0
119  DNFBrandon Lee (185)Trek VwExpertJr 18 & Under999 MMission Viejo3.0
 
2.0 laps (18.0 miles, 2,602 ft. total ascent)
RankTimeNameSponsorCategoryClass/AgePlaceSexCityLaps
1   01:20:29 Randy Liechty (236)Bike EmpirExpert 50-54MSan Diego2.0
2   01:21:50 Michael Hines (226)Team RanchExpert 50-54MEscondido2.0
3   01:22:41 Johnny Dalton (424)VelocitySport 40-44MLa Habra Height2.0
4   01:22:54 Rod Leveque (482)Jenson UsaSport 30-34MUpland2.0
5   01:23:23 Timothy Sparks (438)Bicycle JoSport 35-39MMoorpark2.0
6   01:23:54 Bud Donatoni (547)Sport 40-44MCalabasas2.0
7   01:23:58 Eddie Morris (267)AmgenExpert 50-54MNewberry Park2.0
8   01:24:47 Jon Miller (176)Amgen/gianExpert 55-59MNewbury Park2.0
9   01:24:47 Victor Rodriguez (177)Team CesExpert 50-54MLas Vegas2.0
10   01:25:24 John Biron (450)PlatinumSport 45-49MNewberry Park2.0
11   01:25:53 Richard Sawiris (523)WheelbuildSport 35-39MEl Monte2.0
12   01:26:10 Peter Sproul (442)Chicken RaSport 35-39MGoleta2.0
13   01:26:16 Kyle Ashton (480)Sport 30-34MSan Diego2.0
14   01:26:44 Bill Kissell (221)Expert 50-54MCovina2.0
15   01:26:45 Bob Blatner (214)Bikes4lifeExpert 60-64MAntioch2.0
16   01:26:56 Chrissy Bono (158)IntensePro 1-99FSan Diego2.0
17   01:27:25 Patrick Healy (567)UcsbSport 19-24MAlta Dena2.0
18   01:28:22 Daniel Stevenson (451)Sc VeloSport 30-34MUpland2.0
19   01:28:23 Carolyn Popovic (207)Mtbchick.cPro 1-99FHesperia2.0
20   01:28:40 Steven Fogt (423)Bv BikesSport 19-24MCrestline2.0
21   01:28:43 Rene Pulido (437)S Ca VeloSport 35-39MPomona2.0
22   01:28:57 Jeff Volpe (522)Afp/veloSport 45-49MFoothill Ranch2.0
23   01:29:12 Edward Sibby (468)CycopathSport 45-49MTemecula2.0
24   01:29:12 Rob Ramirez (464)Chicken RaSport 40-44MSanta Barbara2.0
25   01:29:24 Michael Morrell (434)FullertonSport 35-39MFullerton2.0
26   01:29:31 Joe Gallal (500)VelocitySport 50-54MFullerton2.0
27   01:29:32 Carlos Rosales (519)Sport 45-49MFontana2.0
28   01:29:42 Jorge Hernandez (297)TurboExpert 50-54MTecate2.0
29   01:29:50 Mark Mumea (492)Jenson UsaSport 30-34MUpland2.0
30   01:30:03 Garrett Garcia (276)Ladera CycExpertJr 16 & UnderMFoothill Ranch2.0
31   01:30:07 Paul Cusick (569)IntenseSport 40-44MCarlsbad2.0
32   01:30:17 Jon Davis (493)AmgenSport 35-39MWoodland Hills2.0
33   01:30:34 Michael Heindel (427)Tm GeoladdSport 35-39MSan Clemente2.0
34   01:30:42 Yoshio Garcia Guerra (503)Sport 19-24MChino2.0
35   01:31:01 Alejandro Medina (521)Sport 40-44MLa Mirada2.0
36   01:31:08 Joy Duerksen (212)Tm Jose OlExpert 19-29FForest Falls2.0
37   01:31:12 Mandy Eakins (285)Content WoPro 1-99FNewport Beach2.0
38   01:31:14 Chase Schoen (470)Amgen CyclSport 30-34MThousand Oaks2.0
39   01:31:19 Enrique Jacome (463)Sport 50-54MIndian Wells2.0
40   01:31:19 Antonio Zamora (485)JoselynsSport 25-29MSalinas2.0
41   01:31:26 Robert Mundy (460)AmgenSport 45-49MSimi Valley2.0
42   01:31:27 Chris Messina (535)GeoladdersSport 30-34MRsm2.0
43   01:31:28 Darin Tanikama (539)Sport 40-44MIrvine2.0
44   01:31:50 Arnie Fernandez (497)Sport 45-49MNewbury Park2.0
45   01:32:04 Jan Michaelis (459)Tm Jose OlSport 50-54MLoma Linda2.0
46   01:32:09 Paul Elkins (553)Afp/veloSport 40-44MAliso Viejo2.0
47   01:32:11 Kim Mcdaniel (504)Chicken RaSport 45-49MSanta Barbara2.0
48   01:32:26 David Ruiz (436)Sport 30-34MAltadena2.0
49   01:32:30 Gary Strabala (195)P.d. DistrExpert 50-54MLas Vegas2.0
50   01:32:31 Mike Gourley (278)AcmeExpert 50-54MVentura2.0
51   01:32:35 Frank Orello (477)Bicycle JoSport 35-39MNorth Hollywood2.0
52   01:32:43 John Gannon (548)PlatinumSport 35-39MSanta Barbara2.0
53   01:32:49 Ankie Trollegard (211)Helens/subPro 1-99FIncline Village2.0
54   01:32:51 Bernardino Avila (478)Sport 35-3910 MWinnetka2.0
55   01:33:00 John Holthaus (479)Afp/veloSport 50-54MCoto De Caza2.0
56   01:33:20 Geo Snelling (566)Sport 35-3911 MTopanga Canyon2.0
57   01:33:20 Robert Atkins (537)Smiths CycSport 30-34MSan Pedro2.0
58   01:33:59 Craig Donkin (513)Sport 40-44MTarzana2.0
59   01:33:59 Garner Palenske (235)Cal-coastExpert 50-54MSan Diego2.0
60   01:34:06 Scott Moore (510)Sport 19-24MSan Dimas2.0
61   01:34:14 Bill Valleroy (502)Sport 45-49MEscondido2.0
62   01:34:17 John-rhys Newman (529)NokiaSportS Speed 1-99MWoodland Hills2.0
63   01:34:18 Beverly Chaney (222)Roaring MoExpert 40-49FCarmel2.0
64   01:34:20 John Furlong (511)Afp/veloSport 40-44MSan Clemente2.0
65   01:34:57 Christopher Bautista (417)Sc VeloSport 35-3912 MArcadia2.0
66   01:34:59 Brian Adler (476)Uc IrvineSport 30-34MLos Angeles2.0
67   01:35:06 Richard Manzella (171)HelensExpert 55-59MSanta Monica2.0
68   01:35:10 Omar Estrada (491)EncoreSport 30-3410 MBuena Park2.0
69   01:35:16 Steve Boelter (416)PlatinumSport 45-49MGoleta2.0
70   01:35:27 Stan Ford (189)CycopathExpert 60-64MTemecula2.0
71   01:35:28 Cheryl Roth (243)Fisher/helExpert 40-49FLos Angeles2.0
72   01:35:29 Christie Pleiss (174)Pass PhysiPro 1-99FRedlands2.0
73   01:35:30 John Schmidt (563)SportS Speed 1-99MLake Forest2.0
74   01:35:31 Tod Hostetler (530)Team ApeSport 50-54MNorth Hills2.0
75   01:35:51 Scott Palmer (498)Covina ValSport 35-3913 MLa Verne2.0
76   01:35:59 Carmine Cozzolino (446)Sport 40-4410 MEncinitas2.0
77   01:36:04 Lee Mceachern (472)Sport 50-54MSan Diego2.0
78   01:36:06 Jim Carr (559)Action SpoSport 40-4411 MTehachapi2.0
79   01:36:07 Scott Harper (554)SportClydes 35+MAtascadero2.0
80   01:36:08 Jason Butler (556)FreewheelSport 30-3411 MSan Diego2.0
81   01:36:16 Stacey Roberts (289)PlatinumExpert 19-29FSanta Barbara2.0
82   01:36:22 Gabriel Garcia (419)Chicken RaSport 35-3914 MVentura2.0
83   01:36:53 Tim Brewer (506)CycopathSport 50-54MTemecula2.0
84   01:36:59 John M Reveles (448)PlatinumSport 40-4412 MValencia2.0
85   01:37:04 Rick Vangrin (542)Sport 35-3915 MSan Clemente2.0
86   01:37:19 Jp Clement (426)Sport 40-4413 MLos Angeles2.0
87   01:37:31 Mark Johnson (560)Sport 40-4414 MCarlsbad2.0
88   01:37:41 Mike Abbott (415)Chicken RaSport 40-4415 MSanta Barbara2.0
89   01:37:46 Kurt Vine (568)Sport 40-4416 MSan Dimas2.0
90   01:37:48 Lisa Crowe (489)Don BikesSport 19-29FRedlands2.0
91   01:38:08 Jeff Nielsen (466)AmgenSport 45-4910 MSimi Valley2.0
92   01:38:15 Moises Molina (453)AfpSportS Speed 1-99MLaguna Niguel2.0
93   01:38:32 Richard Contreras (422)Sport 35-3916 MGlendale2.0
94   01:38:37 Steve Herrera (429)CoverallsSport 45-4911 MMontebello2.0
95   01:38:39 Billy Hart (430)Sport 40-4417 MVentura2.0
96   01:38:59 Tim Bryant (528)Sport 40-4418 MCalabasas2.0
97   01:39:08 Julian Villa (469)Sc VeloSport 30-3412 MMoorpark2.0
98   01:39:14 Daniel Pino (499)Smiths CycSport 45-4912 MLawndale2.0
99   01:39:34 Chris Stapleton (534)Sc VeloSport 55-59MSaugus2.0
100   01:40:29 Vanessa Humic (233)BackboeExpert 19-29FLong Beach2.0
101   01:40:42 Jeff Bennett (527)Afp/veloSport 45-4913 MMission Viejo2.0
102   01:40:48 Samuel Massie (432)Coates CylSport 35-3917 MClaremont2.0
103   01:41:00 Heather Ranoa (179)IntensePro 1-99FMurrieta2.0
104   01:41:03 Don Nelson (541)Sc VeloSport 40-4419 MAlta Loma2.0
105   01:41:25 David Baum (457)Sport 40-4420 MLos Angeles2.0
106   01:41:30 James Jellison (505)Chicken RaSportClydes 35+MSanta Barbara2.0
107   01:41:32 Tony Smith (543)Team BlockSport 40-4421 MPalmdale2.0
108   01:41:32 Steve Offerman (449)Real CheapSport 50-54MVentura2.0
109   01:41:54 Marshall Brown (458)Simply FitSport 45-4914 MTehachapi2.0
110   01:41:57 Douglas House (431)Afp/veloSport 50-54MDove Canyon2.0
111   01:42:02 Dennis Finch (538)Sport 45-4915 MVentura2.0
112   01:42:23 Jeff Kinney (447)Cal CoastSport 50-5410 MSan Diego2.0
113   01:42:30 Mike Roberts (435)PlatinumSport 55-59MOjai2.0
114   01:42:37 Jacinda Raiche (555)Sport 30-39FVenice2.0
115   01:42:47 Terry Dahl (162)PlatinumExpert 65+MSanta Barbara2.0
116   01:42:52 Randy Rush (465)Rush RacinSport 40-4422 MRamona2.0
117   01:43:03 Kevin Bailey (454)Sport 40-4423 MPinon Hills2.0
118   01:43:05 Andrew Hart (531)WoodcrestSportClydes 35+MMoreno Valley2.0
119   01:43:16 Tim Van Gilder (533)Crank BrosSport 35-3918 MLaguna Niguel2.0
120   01:43:27 Don Jackson (517)Team ApeSport 50-5411 MMission Viejo2.0
121   01:44:07 Scott Amiss (418)Sport 45-4916 MLos Angeles2.0
122   01:44:33 Steve Bertrand (414)PlatinumSport 50-5412 MCapinteria2.0
123   01:44:58 David Lieberman (518)La GrangeSport 40-4424 MSherman Oaks2.0
124   01:45:06 Geoffrey Eyer (551)Sport 35-3919 MLa Quinta2.0
125   01:45:28 Michelle Monroe (487)Sport 19-29FSalinas2.0
126   01:46:10 Adam Torpey (570)P.r.a.Sport 19-24MSan Diego2.0
127   01:46:15 David Jenkins (475)Sport 40-4425 MSan Diego2.0
128   01:46:16 Seth Sproul (544)Sport 30-3413 MLa Jolla2.0
129   01:46:30 Steve Kelley (486)JoselynsSport 35-3920 MSalinas2.0
130   01:46:49 Heidi Volpe (250)BackboneExpert 40-49FTopanga2.0
131   01:47:08 John Bamford (455)Team ApeSport 55-59MSimi Valley2.0
132   01:47:16 Rick Lane (524)Sport 45-4917 MFullerton2.0
133   01:48:38 Michael Dulin (525)Back AlleySportClydes 35+MRcho Santa Marg2.0
134   01:48:56 Scott Mcclave (526)Simi CycliSport 19-24MSimi Valley2.0
135   01:48:59 Jason Chioda (488)Pasadena CSport 25-29MPasadena2.0
136   01:49:11 Paula Rogers (239)So Cal SpeExpert 40-49FValencia2.0
137   01:49:56 Brooke Warner (473)Bicycle JoSport 19-29FAltadena2.0
138   01:50:11 Gary Stewart (501)Esi GripsSport 50-5413 MOak Hills2.0
139   01:50:32 Chuck Filkins (420)Team ApeSport 50-5414 MSimi Valley2.0
140   01:52:04 Steve Borja (552)Sport 30-3414 MMission Viejo2.0
141   01:52:17 Stanley Craig (484)SportS Speed 1-99MSantee2.0
142   01:52:20 Heidi Bowen (540)IdyllwildSport 30-39FWinnetka2.0
143   01:53:11 Debbie Strehlow (204)Bicycle JoExpert 40-49FNorco2.0
144   01:53:23 Brian Rogers (461)Sc VeloSport 19-24MSan Dimas2.0
145   01:53:41 Lynda Palubski (509)IdyllwildSport 40-49FValneci2.0
146   01:54:19 Mark Goldsmith (495)Bikeman.coSport 50-5415 MChatsworth2.0
147   01:54:25 Bret Barker (545)SportClydes 34 & UnderMLa Jolla2.0
148   01:55:34 Shannon Hirsch (494)Bikeman.coSport 45-4918 MSanta Monica2.0
149   01:55:42 Philippe Minniti (520)Team ApeSport 55-59MCanyon Country2.0
150   01:55:47 Buzz Brockway (157)Team ApeExpert 65+MGranada Hills2.0
151   01:55:53 Gordon Gracia (428)Pedal PoweSport 60-64MNipomo2.0
152   01:57:04 Roger Jorgensen (496)Bikeman.coSport 55-59MWest Hills2.0
153   01:58:21 Lucas Crawford (490)SportClydes 34 & UnderMOak Park2.0
154   01:58:24 Mark Lynch (471)Amgen/simiSport 50-5416 MThousand Oaks2.0
155   01:59:06 Dan Munz (474)Bicycle JoSport 50-5417 MElizabeth Lake2.0
156   01:59:37 Gregory Clarke (564)Velo RestrSport 45-4919 MSanta Ana2.0
157   01:59:52 Barbara Furlong (512)Afp/veloSport 40-49FSan Clemente2.0
158   02:00:13 Rachel Park (561)Afp/veloSport 30-39FHuntington Beac2.0
159   02:02:37 Roscoe Cummins (425)Sport 25-29MMammoth Lakes2.0
160   02:04:42 Peter Eaton (456)Afp/veloSport 50-5418 MLadera Ranch2.0
161   02:05:12 Nathan Wood (444)Monterey BSport 30-3415 MSalinas2.0
162   02:05:23 Randy Putz (536)Bv BikesSport 40-4426 MBig Bear Lake2.0
163   02:05:50 Linda Brown (508)PlatinumSport 30-39FVentura2.0
164   02:07:17 Rick Stedman (439)Ie BikesSport 35-3921 MSantee2.0
165   02:21:50 Donald Guggia (550)Sport 55-59MVentura2.0
166   02:29:38 Patrick Toole (481)Unity SporSport 35-3922 MTujunga2.0
167   02:33:16 John Clemmitt (516)Club EndurSport 60-64MSan Diego2.0
168   02:41:43 Richard Gordon (546)Sport 65+MCosta Mesa2.0
169  DNFDarren Knowles (572)SportClydes 35+999 MEtiwanda2.0
170  DNFJames Van Manen (191)Bikes Of OExpert 65+999 MVentura2.0
171  DNFChad Stewart (441)PlatinumSport 30-34999 MSanta Barbara2.0
172  DNFMichael Wilson (483)FullertonSport 35-39999 MCosta Mesa2.0
173  DNFFaustino Campos (565)Sport 30-34999 MGlendale2.0
174  DNFPhilip Decocco (421)Sport 45-49999 MSimi Valley2.0
 
1.0 lap (9.0 miles, 1,301 ft. total ascent)
RankTimeNameSponsorCategoryClass/AgePlaceSexCityLaps
1   00:46:40 James Koch (1156)Tm CycopatBeginner 25-29MBass Lake1.0
2   00:46:44 Daniel Thompson (842)CycopathBeginnerClydes 35+MTemecula1.0
3   00:47:28 Sergio Vazquez (1164)Beginner 35-39MLa Quinta1.0
4   00:47:55 Shigy Suzuki (1151)PlatinumBeginner 45-49MCarpinteria1.0
5   00:48:25 Brian Bermudes (1154)Chicken RaBeginner 30-34MSanta Barbara1.0
6   00:48:47 Byron Beck (1163)PlatinumBeginner 50+MSanta Barbara1.0
7   00:48:53 Vicki Chernoff (801)Afp/veloBeginner 40-49FFoothill Ranch1.0
8   00:49:13 Paul Donohoe (1155)Chicken RaBeginner 35-39MSanta Barbara1.0
9   00:49:18 Gary Scheidler (1177)Afp/veloBeginner 50+MWest Covina1.0
10   00:49:24 Calvin Lefebvre (1153)Beginner 25-29MRsm1.0
11   00:49:28 Akira Yamada (1144)Beginner 40-44MLos Angeles1.0
12   00:49:44 Matthew Gunnell (1131)Paa/merrilBeginner 35-39MGlendale1.0
13   00:50:14 Steve Bates (1187)BeginnerClydes 35+MSanta Barbara1.0
14   00:50:36 Andrew Wang (1142)Beginner 35-39MPasadena1.0
15   00:50:38 Mike Hinze (1165)Beginner 40-44MWhittier1.0
16   00:51:08 Thomas Stockton (1192)Jenson UsaBeginner 30-34MMonrovia1.0
17   00:51:13 Herman Steenmeijer (1200)Beginner 40-44MBrea1.0
18   00:51:15 Mark Tomkinson (1172)Baja JunkiBeginner 19-24MAlta Loma1.0
19   00:51:32 Lisa Garr (1184)AmgenBeginner 40-49FWoodland Hills1.0
20   00:51:36 Ted Johansen (1194)Beginner 18 & UnderMCastaic1.0
21   00:51:41 Greg Knowles (1135)Chicken RaBeginner 45-49MSanta Barbara1.0
22   00:51:45 Mike Rauls (1167)Beginner 45-49MChino Hills1.0
23   00:51:47 Casey Williams (445)Bv BikesSportJr 14 & UnderMBig Bear City1.0
24   00:51:49 Adam Poytress (1159)Chicken RaBeginner 25-29MSanta Barbara1.0
25   00:52:15 Blake Conner (802)Beginner 35-39MOrange1.0
26   00:52:20 Robert Koch (1158)CycopathBeginner 50+MTemecula1.0
27   00:52:53 Drew Lawler (803)Beginner 30-34MCorona1.0
28   00:52:59 Matthew Thome (1160)PmbcBeginnerJr 14 & UnderMCosta Mesa1.0
29   00:53:02 Joe Buffalino (1124)Beginner 35-39MNewbury Park1.0
30   00:53:40 Edward Ewert (1170)Coates CycBeginnerClydes 35+MClairmont1.0
31   00:54:10 Norberto Oropez (1140)Beginner 35-39MAlhambra1.0
32   00:54:11 Joseph Saban (843)Beginner 35-39MWoodland Hills1.0
33   00:54:22 Eddie Morillas (1174)Beginner 18 & UnderMAgoura Hills1.0
34   00:54:37 Bob Leaming (1182)Beginner 40-44MDiamond Bar1.0
35   00:54:48 Joe Archibald (1125)Beginner 30-34MLa Habra1.0
36   00:54:49 Kevin Inman (1137)Beginner 40-44MCovina1.0
37   00:55:34 Steve Lang (1133)Tm Baja JuBeginner 30-34MUpland1.0
38   00:55:56 Travis Penn (806)Beginner 25-29MBellflower1.0
39   00:56:03 Jaye Donen (1127)PlatinumBeginner 30-39FSanta Barbara1.0
40   00:56:06 Tim Zongker (1143)Beginner 50+MLake Hughes1.0
41   00:56:22 Tim Brown (1175)Beginner 25-29MAgoura Hills1.0
42   00:56:37 Christopher Williams (1180)Beginner 35-39MRialto1.0
43   00:56:46 Paul Amodei (1183)Coates MtbBeginnerClydes 35+MUpland1.0
44   00:57:18 Forrest Hayashi (815)PmbcBeginner 45-49MLong Beach1.0
45   00:57:36 Sean Robman (1191)Beginner 25-29MPasadena1.0
46   00:57:42 Robert George (1126)Bob GeorgeBeginner 45-49MCarpinteria1.0
47   00:57:45 Bruce Kane (1147)BeginnerClydes 35+MLake Forest1.0
48   00:57:46 Peter Dobrotin (1178)Beginner 40-44MW Covina1.0
49   00:58:17 Mark Owens (1138)Beginner 45-49MCanyon Lake1.0
50   00:58:28 Ryan Blanchette (1152)BackboneBeginner 18 & UnderMLong Beach1.0
51   00:58:30 Christopher Stetson (1197)Beginner 30-34MValencia1.0
52   00:58:39 Keith Honda (1130)Beginner 50+MSalinas1.0
53   00:58:51 Skyler Gambrell (1171)Baja JunkiBeginner 25-29MHelan1.0
54   00:58:56 Roger Hernandez (1195)BeginnerClydes 35+MLong Beach1.0
55   00:59:01 David Culbertson (818)AmgenBeginner 45-49MNewbury Park1.0
56   00:59:37 Joseph Fuentes (1157)CoatesmtbtBeginner 50+MClaremont1.0
57   01:00:17 Quinten Kirby (1134)Tm IronclaNoneJr 12 & UnderMSan Diego1.0
58   01:00:34 Justin Brewer (507)CycopathSportJr 14 & UnderMTemecula1.0
59   01:00:56 Steve Marshall (1132)Bv BikesBeginnerClydes 34 & UnderMChatsworth1.0
60   01:01:20 Edward Mitchell (827)Beginner 40-44MThousand Oaks1.0
61   01:01:24 Ajit Verma (1141)Beginner 25-29MSan Diego1.0
62   01:01:58 Jeff Harbison (1129)Velo ProBeginner 50+MSanta Barbara1.0
63   01:03:46 Ish Felicie (830)BeginnerClydes 34 & UnderMLong Beach1.0
64   01:04:30 Mitch Marich (1176)Beginner 50+MPasadena1.0
65   01:04:44 Sidney Beck (813)NoneJr 12 & UnderMSanta Barbara1.0
66   01:05:02 Jon Sacks (1179)Beginner 30-34MLake Balboa1.0
67   01:05:21 Mark Thome (1162)PmbcBeginner 45-49MCosta Mesa1.0
68   01:05:45 Marc Tabak (823)Beginner 50+MSan Dimas1.0
69   01:05:47 Carlyn Lambert Oropez (1136)Beginner 30-39FAlhambra1.0
70   01:05:52 Johanna Stevenson (1150)Sc VeloBeginner 19-29FUpland1.0
71   01:05:52 Mark Jr Owens (1139)BeginnerJr 14 & UnderMCanyon Lake1.0
72   01:06:04 Alex Dulay (1166)Beginner 30-34MChino Hills1.0
73   01:06:16 Lucas Chemotti (822)Team BlockBeginnerJr 14 & UnderMLancaster1.0
74   01:06:30 Austin Gradillas (1149)BeginnerJr 14 & UnderMLake Arrowhead1.0
75   01:06:58 Cameron Williams (1146)Bv BikesNoneJr 12 & UnderMBig Bear City1.0
76   01:07:18 Scott Vlahos (841)BeginnerClydes 35+MRiverside1.0
77   01:07:19 Guillermo Delgadillo (833)BeginnerClydes 34 & UnderMLong Beach1.0
78   01:07:21 Ronda Warden (1181)Beginner 40-49FBuena Park1.0
79   01:07:22 Carlos Aguirre (829)BeginnerClydes 34 & UnderMSouth Gate1.0
80   01:07:31 Thomas Blaine (1198)Tm Jose OlBeginner 40-44MHighland1.0
81   01:07:38 Jeanne Scheetz (1161)Coates CycBeginner 40-49FUpland1.0
82   01:07:42 Joann Rayos (814)Beginner 19-29FLakewood1.0
83   01:09:12 Hilary Maitland (809)Beginner 30-39FSherman Oaks1.0
84   01:09:15 Evan Williams (1145)Bv BikesNoneJr 10 & UnderMBi Bear City1.0
85   01:09:55 Steve Engelgau (1186)Bv BikesBeginner 50+10 MLake Arrowhead1.0
86   01:10:06 Robert Kersey (1193)RiversideBeginner 35-3910 MCorona1.0
87   01:11:26 Floyd Aul (1185)BeginnerClydes 35+MMontclair1.0
88   01:13:43 Kim Giddings (1169)Bicycle JoBeginner 40-49FEdwards Afb1.0
89   01:14:30 Roy Sheppard (849)Beginner 50+11 MThousand Oaks1.0
90   01:14:38 Paolo Hernandez (1128)Beginner 30-34MArleta1.0
91   01:17:16 Jeff Guy (1168)BeginnerClydes 34 & UnderMTorrance1.0
92   01:18:13 Kim Finch (812)Beginner 40-49FWhittier1.0
93   01:19:34 Geert Hanssens (808)BeginnerClydes 35+MCosta Mesa1.0
94   01:21:03 Mark Hughes (1196)Team ApeBeginner 35-3911 MStevenson Ranch1.0
95   01:22:04 Bill Lascurain (840)Beginner 45-49MLaeside1.0
96   01:25:51 Noe Molina (1190)Afp/veloNoneJr 12 & UnderMLaguna Niguel1.0
97   01:26:02 Steven Sheppard (846)Beginner 18 & UnderMThousand Oaks1.0
98   01:26:11 Sander Putz (819)Bv BikesBeginnerJr 14 & UnderMBig Bear Lake1.0
99   01:29:23 Roberto Oliva (1188)Bim RacingBeginner 40-44MLittlerock1.0
100   01:32:38 Brian Kmetz (826)Afp/veloBeginnerJr 14 & UnderMR.s.m.1.0
101   01:37:24 Lisa/greg Riehl/norombaba (557)Trek/clifNoneTANDEM 1-99MSan Diego1.0
102   01:41:45 Tyler Carr (558)Action SpoSportJr 18 & UnderMTehachapi1.0
103   01:42:39 Jake Johnson (562)SportJr 16 & UnderMCarlsbad1.0
104   01:48:20 Vu Le (549)Temple CitSportJr 18 & UnderMTemple City1.0
105   01:50:21 Michael Suggs (452)SportJr 16 & UnderMIrvine1.0
106   01:52:03 Jake Reese (825)NoneJr 10 & UnderMTrabuco Canyon1.0
107   02:02:24 David Tarrant (467)SportJr 16 & UnderMSan Dimas1.0
108  DNFMatts Hannssens (532)SportJr 16 & Under999 MCota Mesa1.0
109  DNFDale Carter (1173)Afp/veloBeginner 45-49999 MRancho Cucamong1.0
110  DNFEdwin Dubon (807)Beginner 50+999 MGlendale1.0
111  DNFJulie Gee (828),1:00:56.58Beginner 30-39FLong Beach1.0
112  DNFRonald Harrison (851)Beginner 25-29999 MEncinitas1.0
113  DNFQuint Berkemeier (1148)BeginnerJr 14 & Under999 MLake Arrowhead1.0

FAQXC Mountain Biking - RACE CALENDAR  2020Contact

Copyright 2004 - 2020 GeoLadders.com. All rights reserved.   Terms / Privacy Policy